Location: Fauquembergues
(50.6005°N, 2.0987°E)
Time: 10:59:09
(UTC+00:00)

ERS-2 - Pass Details

Date: 14 July 2020
Orbit: 493 x 498 km, 98.5° (Epoch: 05 August)

Event Time Altitude Azimuth Distance (km) Brightness Sun altitude
Rises 02:30:05 0° 142° (SE) 2,572 5.6 -10.3°
Reaches altitude 10° 02:32:15 10° 133° (SE) 1,693 4.7 -10.1°
Maximum altitude 02:35:35 35° 67° (ENE) 827 3.9 -9.8°
Drops below altitude 10° 02:38:56 10° 1° (N) 1,704 5.7 -9.5°
Sets 02:41:07 0° 352° (N) 2,592 6.5 -9.3°
